Flag Weather past 2 weeks in Winsen (Luhe), Lower Saxony, Germany

Now
39 °F

Passing clouds.


Feels Like: 32 °F
Forecast: 30 / 38 °F
Wind: 12 mph from Southeast

Location: Hamburg-Finkenwerder

Current Time: Nov 27, 2014 at 2:30:56 PM

Latest Report: Nov 27, 2014 at 1:50 PM


Visibility: N/A

Pressure: 29.92 "Hg

Humidity: 81%

Dew point: 34 °F

Location of Winsen (Luhe)Location

Historic Weather in Winsen (Luhe) — Graph

°F

Winsen (Luhe) temperature yesterday

Maximum temperature yesterday: 43 °F (at 1:50 PM)
Minimum temperature yesterday: 37 °F (at 5:50 AM)
Average temperature yesterday: 40 °F

Past Weeks' High & Low Weather Summary

 TemperatureHumidityPressure
High54 °F (Nov 14, 1:20 PM)100% (Nov 12, 1:20 PM)30.39 "Hg (Nov 12, 1:20 PM)
Low32 °F (Nov 21, 5:50 AM)76% (Nov 24, 2:50 PM)29.65 "Hg (Nov 15, 3:20 PM)
Average45 °F93%30.06 "Hg
* Reported Nov 12 1:20 PM — Nov 27 1:20 PM, Winsen (Luhe), Weather by CustomWeather, © 2014

Note: Actual official high and low records may vary slightly from our data, if they occured in-between our weather recording intervals... More about our weather records

Advertising

Winsen (Luhe) weather history for previous 24 hours

 ConditionsComfort  
Time TempWeatherWind HumidityBarometerVisibility
1:20 PM
Nov 27
37 °FPassing clouds.12 mph87%29.92 "HgN/A
12:50 PM37 °FScattered clouds.10 mph87%29.95 "Hg5 mi
12:20 PM37 °FScattered clouds.10 mph87%29.95 "Hg4 mi
11:50 AM37 °FScattered clouds.10 mph87%29.95 "Hg5 mi
11:20 AM37 °FScattered clouds.10 mph81%29.95 "Hg5 mi
10:50 AM36 °FScattered clouds.12 mph93%29.95 "Hg5 mi
10:20 AM36 °FPartly sunny.9 mph93%29.98 "HgN/A
9:20 AM36 °FPartly sunny.12 mph93%29.95 "Hg5 mi
8:50 AM36 °FPartly sunny.10 mph93%29.95 "Hg5 mi
8:20 AM36 °FPartly sunny.13 mph93%29.95 "Hg5 mi
7:50 AM36 °FPassing clouds.12 mph93%29.95 "Hg5 mi
7:20 AM37 °FPassing clouds.13 mph87%29.95 "HgN/A
6:50 AM37 °FPassing clouds.12 mph87%29.98 "Hg5 mi
6:20 AM37 °FPassing clouds.10 mph87%29.98 "Hg5 mi
5:50 AM37 °FLow clouds.13 mph93%29.98 "Hg4 mi
8:50 PM
Nov 26
39 °FPassing clouds.9 mph87%30.07 "HgN/A
8:20 PM39 °FPartly cloudy.10 mph87%30.09 "HgN/A
7:50 PM39 °FPartly cloudy.12 mph87%30.09 "HgN/A
7:20 PM39 °FPartly cloudy.14 mph87%30.09 "HgN/A
6:50 PM39 °FPassing clouds.14 mph93%30.09 "HgN/A
6:20 PM39 °FPartly cloudy.15 mph93%30.09 "HgN/A
5:50 PM39 °FPartly cloudy.12 mph93%30.09 "HgN/A
5:20 PM39 °FPassing clouds.13 mph93%30.09 "HgN/A
4:50 PM39 °FPassing clouds.9 mph93%30.09 "HgN/A
4:20 PM39 °FPassing clouds.9 mph93%30.12 "HgN/A
3:50 PM39 °FPartly sunny.9 mph93%30.12 "HgN/A
3:20 PM41 °FScattered clouds.10 mph87%30.12 "HgN/A
2:50 PM41 °FPassing clouds.13 mph87%30.12 "HgN/A
2:20 PM43 °FPassing clouds.10 mph81%30.12 "HgN/A
Weather by CustomWeather, © 2014

See weather overviewHow to use our weather pages